Location: Newark
(52.3500°N, 175.9667°E)
Time: 21:49:26
(UTC+00:00)

Transit 4A - Pass Details

Date: 26 April 2021
Orbit: 871 x 974 km, 66.8° (Epoch: 16 May)

Event Time Altitude Azimuth Distance (km) Brightness Sun altitude
Rises 13:56:13 0° 284° (WNW) 3,583 10.8 -20.3°
Reaches altitude 10° 13:59:25 10° 299° (WNW) 2,622 10.3 -20.1°
Maximum altitude 14:04:00 22° 349° (NNW) 1,895 10.1 -19.8°
Drops below altitude 10° 14:08:31 10° 38° (NE) 2,572 11.4 -19.5°
Sets 14:11:38 0° 54° (NE) 3,497 12.1 -19.2°
